Regional Weather Roundup
Issued by NWS

Home | Current Version | Previous Version | Graphics & Text | Print | Product List | Glossary On
Versions: 1 2 3 4 5 6 7 8 9 10 11 12 13 14 15 16 17 18 19 20 21 22 23 24 25 26 27 28 29 30 31 32 33 34 35 36 37 38 39 40 41 42 43 44 45 46 47 48 49 50
000
ASUS43 KOAX 240810
RWRNE

WEATHER ROUNDUP FOR NEBRASKA
NATIONAL WEATHER SERVICE OMAHA NE
200 AM CST SAT FEB 24 2018

NOTES: SATELLITE DATA IS BEING USED TO AUGMENT CLOUD COVER ABOVE
       12000 FEET.
       "FAIR" INDICATES FEW OR NO CLOUDS BELOW 12,000 FEET WITH NO
       SIGNIFICANT WEATHER AND/OR OBSTRUCTIONS TO VISIBILITY.


NEZ001>004-019>022-054>056-240900-
NEBRASKA PANHANDLE

CITY           SKY/WX    TMP DP  RH WIND       PRES   REMARKS
SCOTTSBLUFF    LGT SNOW  21  18  88 E8        29.91F FOG     WCI  11
ALLIANCE       CLOUDY    19  17  92 S8        29.92F WCI   9
CHADRON        CLOUDY     9   5  84 W5        29.92F WCI   1
GORDON         CLOUDY    12   8  85 E5        29.93F WCI   4
KIMBALL        CLOUDY    22  22  99 S10       29.86F FOG     WCI  11
SIDNEY         CLOUDY    21  20  96 SE13      29.89F FOG     WCI   9
$$

NEZ057>060-069>072-079>082-240900-
SOUTHWEST NEBRASKA

CITY           SKY/WX    TMP DP  RH WIND       PRES   REMARKS
NORTH PLATTE   CLOUDY    20  17  88 E5        30.03F WCI  13
IMPERIAL       LGT SNOW  21  20  96 NE9       29.96F FOG     WCI  11
LEXINGTON      CLOUDY    23  20  89 E9        30.04F WCI  13
MCCOOK         CLOUDY    23  22  96 E9        30.01F FOG     WCI  13
OGALLALA       LGT SNOW  20  18  93 E5        29.97F WCI  13
$$

NEZ005>010-023>029-035>040-094-240900-
NORTH CENTRAL NEBRASKA

CITY           SKY/WX    TMP DP  RH WIND       PRES   REMARKS
VALENTINE      CLOUDY    12   7  80 CALM      30.05S
AINSWORTH      CLOUDY    11  10  95 S6        30.04F WCI   2
BROKEN BOW     CLOUDY    19  16  88 E6        30.04F WCI  11
O`NEILL        CLOUDY     6   4  91 CALM      30.10F FOG
ORD            CLOUDY    15  13  91 CALM      30.11F
THEDFORD       CLOUDY    15  14  93 SE3       30.00F
$$

NEZ041-046>049-061>064-073>077-083>087-240900-
SOUTH CENTRAL NEBRASKA

CITY           SKY/WX    TMP DP  RH WIND       PRES   REMARKS
GRAND ISLAND   FOG       19  17  92 E10       30.09F VSB 3/4 WCI   7
AURORA         CLOUDY    19  18  93 E8        30.10F FOG     WCI   9
HASTINGS       CLOUDY    21  19  92 E7        30.08F FOG     WCI  12
HEBRON         CLOUDY    25  24  94 NE10      30.09F FOG     WCI  15
HOLDREGE       CLOUDY    22  22 100 NE9       30.04F FOG     WCI  12
KEARNEY        CLOUDY    21  18  88 E9        30.07F WCI  11
YORK           CLOUDY    19  19 100 NE8       30.11F FOG     WCI   9
$$

NEZ011>018-030>034-042>045-240900-
NORTHEAST NEBRASKA

CITY           SKY/WX    TMP DP  RH WIND       PRES   REMARKS
NORFOLK        FOG       17  16  95 E8        30.13F VSB 1/2 WCI   7
ALBION         FOG       18  16  92 SE9       30.12F VSB 1   WCI   7
BLAIR          CLOUDY    20  19  94 NE12      30.15F FOG     WCI   8
COLUMBUS       CLOUDY    19  17  92 E8        30.15F WCI   9
FREMONT        CLOUDY    20  19  98 NE10      30.16F WCI   9
TEKAMAH        CLOUDY    21  19  92 E8        30.20F WCI  11
WAYNE          FOG       17  16  97 E9        30.17F VSB 1/2 WCI   6
$$

NEZ050>053-065>068-078-088>093-240900-
SOUTHEAST NEBRASKA

CITY           SKY/WX    TMP DP  RH WIND       PRES   REMARKS
LINCOLN        CLOUDY    23  21  92 NE14      30.12F FOG     WCI  11
OMAHA EPPLEY   CLOUDY    22  19  89 NE8       30.18F WCI  12
BEATRICE       CLOUDY    27  25  95 NE10G17   30.08F FOG     WCI  17
FALLS CITY     MIX PCPN  30  27  88 NE13      30.09F WCI  20
NEBRASKA CITY  CLOUDY    27  27 100 NE13      30.12F WCI  16
PLATTSMOUTH    CLOUDY    25  24  96 NE9       30.13F WCI  15
$$

NEZ044-045-051>053-067-240900-
OMAHA AREA

CITY           SKY/WX    TMP DP  RH WIND       PRES   REMARKS
OMAHA EPPLEY   CLOUDY    22  19  89 NE8       30.18F WCI  12
BLAIR          CLOUDY    20  19  94 NE12      30.15F FOG     WCI   8
FREMONT        CLOUDY    20  19  98 NE10      30.16F WCI   9
MILLARD        CLOUDY    23  21  90 NE6       30.15F WCI  16
OFFUTT AFB     CLOUDY    23  20  90 NE14      30.14F WCI  10
PLATTSMOUTH    CLOUDY    25  24  96 NE9       30.13F WCI  15
WAHOO          CLOUDY    22  20  93 NE12      30.14F FOG     WCI  10
$$



USA.gov is the U.S. government's official web portal to all federal, state and local government web resources and services.